Baker, MT

7:34 PM MST on February 25, 2018 (GMT -0700)
Baker Municipal

Weather History for KBHK - March, 2012

Change the Weather History Date:

Thursday, March 15, 2012

  Actual Average Record
Temperature  
Mean Temperature 50 °F -  
Max Temperature 70 °F 35 °F 75 °F (2015)
Min Temperature 30 °F 22 °F 12 °F (1978)
Degree Days  
Heating Degree Days 16    
Moisture  
Dew Point 26 °F    
Average Humidity 40    
Maximum Humidity 64    
Minimum Humidity 21    
Precipitation  
Precipitation 0.00 in - - ()
Sea Level Pressure  
Sea Level Pressure 29.90 in    
Wind  
Wind Speed 7 mph (South)    
Max Wind Speed 18 mph    
Max Gust Speed 21 mph    
Visibility 10 miles    
Events      
Averages and records for this station are not official NWS values.
T = Trace of Precipitation, MM = Missing Value Source: NWS Daily Summary

Daily Weather History Graph

Daily Weather History Graph

Search for Another Location

Airport or City:

Trip Planner

Search our weather history database for the weather conditions in past years. The results will help you decide how hot, cold, wet, or windy it might be!

Date:

Astronomy

Mar. 15, 2012 Rise Set
Actual Time 7:08 AM MDT 7:03 PM MDT
Civil Twilight 6:38 AM MDT 7:33 PM MDT
Nautical Twilight 6:03 AM MDT 8:08 PM MDT
Astronomical Twilight 5:28 AM MDT 8:44 PM MDT
Moon 2:58 AM MDT (3/15) 12:03 PM MDT (3/15)
Length of Visible Light 12h 54m
Length of Day
11h 54m
Last Quarter, 42% of the Moon is Illuminated
Mar 15
Last Quarter
Mar 22
New
Mar 30
First Quarter
Apr 6
Full
Apr 13
Last Quarter

Hourly Weather History & Observations

Time (MDT) Temp. Windchill Dew Point Humidity Pressure Visibility Wind Dir Wind Speed Gust Speed Precip Events Conditions
1:51 AM 37.0 °F 32.4 °F 21.9 °F 54% 29.95 in 10.0 mi SE 5.8 mph - N/A   Partly Cloudy
2:51 AM 32.0 °F - 21.0 °F 64% 29.96 in 10.0 mi Calm Calm - N/A   Clear
3:51 AM 33.1 °F 30.0 °F 19.9 °F 59% 29.95 in 10.0 mi ESE 3.5 mph - N/A   Clear
4:51 AM 30.9 °F 26.2 °F 19.9 °F 64% 29.96 in 10.0 mi ESE 4.6 mph - N/A   Clear
5:51 AM 34.0 °F - 19.9 °F 56% 29.97 in 10.0 mi Calm Calm - N/A   Clear
6:51 AM 37.0 °F 34.5 °F 21.0 °F 52% 29.99 in 10.0 mi Variable 3.5 mph - N/A   Clear
7:51 AM 34.0 °F 28.8 °F 21.9 °F 61% 30.00 in 10.0 mi SE 5.8 mph - N/A   Clear
8:51 AM 45.0 °F 42.6 °F 24.1 °F 44% 30.00 in 10.0 mi ESE 4.6 mph - N/A   Clear
9:51 AM 53.1 °F - 25.0 °F 34% 29.98 in 10.0 mi Calm Calm - N/A   Clear
10:51 AM 60.1 °F - 26.1 °F 27% 29.97 in 10.0 mi WSW 9.2 mph - N/A   Clear
11:51 AM 64.0 °F - 27.0 °F 25% 29.94 in 10.0 mi SW 16.1 mph - N/A   Clear
12:51 PM 66.0 °F - 28.0 °F 24% 29.91 in 10.0 mi West 11.5 mph - N/A   Clear
1:51 PM 68.0 °F - 28.0 °F 22% 29.89 in 10.0 mi SW 15.0 mph - N/A   Clear
2:51 PM 68.0 °F - 27.0 °F 21% 29.87 in 10.0 mi SSW 5.8 mph - N/A   Clear
3:51 PM 69.1 °F - 27.0 °F 21% 29.86 in 10.0 mi WSW 13.8 mph 20.7 mph N/A   Clear
4:51 PM 69.1 °F - 27.0 °F 21% 29.85 in 10.0 mi SSW 11.5 mph - N/A   Clear
5:51 PM 68.0 °F - 28.0 °F 22% 29.83 in 10.0 mi SW 10.4 mph - N/A   Clear
6:51 PM 57.0 °F - 28.9 °F 34% 29.83 in 10.0 mi South 9.2 mph - N/A   Clear
7:51 PM 48.0 °F - 30.0 °F 50% 29.85 in 10.0 mi South 11.5 mph - N/A   Clear
8:51 PM 54.0 °F - 28.9 °F 38% 29.81 in 10.0 mi SSE 12.7 mph - N/A   Clear
9:51 PM 53.1 °F - 28.9 °F 40% 29.80 in 10.0 mi SSE 18.4 mph - N/A   Clear
10:51 PM 50.0 °F - 28.9 °F 44% 29.77 in 10.0 mi SSE 15.0 mph - N/A   Clear
11:51 PM 48.9 °F - 28.9 °F 46% 29.73 in 10.0 mi SSE 15.0 mph - N/A   Clear